Regional Weather Roundup
Issued by NWS

Home | Current Version | Previous Version | Text Only | Print | Product List | Glossary On
Versions: 1 2 3 4 5 6 7 8 9 10 11 12 13 14 15 16 17 18 19 20 21 22 23 24 25 26 27
000
ASUS46 KPQR 272210
RWROR

OREGON REGIONAL WEATHER ROUNDUP
NATIONAL WEATHER SERVICE PORTLAND OR
300 PM PDT SAT AUG 27 2016

NOTE: "FAIR" INDICATES FEW OR NO CLOUDS BELOW 12,000 FEET WITH
NO SIGNIFICANT WEATHER AND/OR OBSTRUCTIONS TO VISIBILITY.

ORZ001>013-272300-
NORTHWEST OREGON


CITY           SKY/WX    TMP DP  RH WIND       PRES   REMARKS
ASTORIA        CLOUDY    63  58  83 SW13      29.99F
NEWPORT        CLOUDY    57  54  88 SW10      30.06S
PORTLAND       MOSUNNY   81  52  36 VRB5      29.91F
VANCOUVER WA   SUNNY     80  53  39 VRB6      29.90F
SCAPPOOSE      MOSUNNY   78  57  48 N14       29.91F
HILLSBORO      SUNNY     79  54  41 CALM      29.91F
AURORA         MOSUNNY   79  55  43 VRB3      29.93F
MCMINNVILLE    SUNNY     82  55  39 SW10      29.92F
SALEM          SUNNY     82  53  36 W7        29.92F
CORVALLIS        N/A     79  57  47 NW16      29.96S
EUGENE         MOSUNNY   82  50  32 W9        29.94F
$$

ORZ021-028-272300-
SOUTHWEST OREGON


CITY           SKY/WX    TMP DP  RH WIND       PRES   REMARKS
NORTH BEND     SUNNY     63  54  72 W12       30.02S
BROOKINGS      CLOUDY    57  53  86 SW5       30.04R
ROSEBURG       SUNNY     90  44  20 N9        29.91F
SEXTON SUMMIT  SUNNY     80  39  23 NW5       30.07F
MEDFORD        SUNNY     92  41  17 CALM      29.90F
$$

ORZ014>016-041-272300-
COLUMBIA GORGE


CITY           SKY/WX    TMP DP  RH WIND       PRES   REMARKS
TROUTDALE      SUNNY     82  53  36 N3        29.90F
THE DALLES     PTSUNNY   84  46  26 NW28G37   29.80S
$$

ORZ029>031-041-044-049-050-061>064-502-503-505>511-272300-
EASTERN OREGON


CITY           SKY/WX    TMP DP  RH WIND       PRES   REMARKS
REDMOND        SUNNY     88  35  15 NW17G23   29.93F
BEND           SUNNY     84  37  18 NW9       29.95S
PRINEVILLE     SUNNY     84  39  20 VRB6G13   29.94F
KLAMATH FALLS  SUNNY     86  30  13 W10       30.02F
LAKEVIEW       SUNNY     84  30  14 S8        30.06F
HERMISTON      PTSUNNY   92  41  17 SW18G29   29.74F
PENDLETON      MOSUNNY   89  40  17 W26G38    29.78F
JOHN DAY       SUNNY     87  33  14 W14       29.94S
MEACHAM        SUNNY     83  31  15 VRB7      29.93S
LA GRANDE      SUNNY     90  39  17 W10G16    29.84F
BAKER CITY     SUNNY     88  36  15 W8        29.89F
BURNS          SUNNY     87  24  10 S9G18     29.97F
ROME             N/A     91  19   7 W13G22    29.94F
ONTARIO        SUNNY     90  38  16 E7        29.86F
$$




USA.gov is the U.S. government's official web portal to all federal, state and local government web resources and services.